OneWeb SL0645

operational
NORAD ID: 55809 Int'l Des: 2023-029 Owner: ONEWEBN Country: UK Constellation: oneweb
LEOCIRCULARPOLARONEWEB_TYPE

Über OneWeb SL0645

Beschreibung wird geladen...

Live-Position

3D-Globus wird geladen...

Nächste Überflüge

Höhenverlauf

Altitude vs Time

uPlot chart will show altitude changes over time

Zweizeiliger Elementsatz

1 55809U 23029P 26034.22315544 .00000078 00000-0 16183-3 0 9991
2 55809 87.9235 331.6466 0001215 74.1512 285.9754 13.19724290141230
Epoch: 3. Feb. 2026 • Age: 9 hours

Aktueller Status

Höhe 1212.3 km
Geschwindigkeit 7.25 km/s
Subsatellitenpunkt -68.21°S, 19°W
Startdatum 9. März 2023
Alter 2.9 years
Typ internet

Technische Details

Klassifizierung Payload
Masse 148.00 kg
Trockenmasse 140.00 kg
Gesamtmasse 148.00 kg
Länge 1.30 m
Durchmesser 1.00 m
Spannweite 5.00 m
Form Trapezoid+2 pan
Hersteller ONEWUS
Bus-Typ ARROW
Phasenstatus In Orbit
Besitzer/Staat ONEWEBN/UK

Große Konstellationen

Loading constellations...